Regional Weather Roundup
Issued by NWS Midland/Odessa, TX

Skip options and go directly to product.
Home | Oldest Version | Previous Version | Current Version | All | Graphics & Text | Save Text | Print | Product List | Glossary On

Skip product version selection by date and time.   
059
ASUS44 KMAF 282202
RWRMAF
MIDLAND AREA WEATHER ROUNDUP
NATIONAL WEATHER SERVICE MIDLAND TX
400 PM CST FRI NOV 28 2014

...IN SOUTHWEST TEXAS AND SOUTHEAST NEW MEXICO...

CITY           SKY/WX    TMP DP  RH WIND       PRES   REMARKS
ALPINE         SUNNY     69  19  14 SW17      30.18F
ANDREWS        FAIR      73  24  16 SW13      30.04F
ARTESIA        NOT AVBL
BIG SPRING     SUNNY     74  30  19 S15       30.05F
CARLSBAD       SUNNY     74  26  16 SE5       30.01F
DRYDEN           N/A     69  35  28 SE12      30.07F
FORT STOCKTON  SUNNY     77  16  10 SW15G24   30.05F
GUAD PASS      NOT AVBL
HOBBS          SUNNY     72  21  15 SW13      30.03F
MARFA          SUNNY     70  18  13 S12G17    30.17F
MIDLAND AIRPK  SUNNY     73  24  16 SW13G20   30.04F
MIDLAND INTL   SUNNY     73  24  16 SW14      30.04F
ODESSA         SUNNY     72  19  13 SW14      30.05F
PECOS          SUNNY     76  27  15 SE3       30.03F
PRESIDIO       FAIR      71  25  17 W5        30.10F
SEMINOLE       SUNNY     73  24  16 SW15      30.04F
SNYDER         SUNNY     73  30  19 SW18G26   30.00F
WINK           SUNNY     77  19  11 SW9       30.02F
$$
...OTHER STATIONS IN TEXAS...

CITY           SKY/WX    TMP DP  RH WIND       PRES   REMARKS
ABILENE        SUNNY     72  40  31 SW23G31   30.01F
AMARILLO       SUNNY     83   7   5 SW17G25   29.89F
AUSTIN         SUNNY     72  48  42 S18       30.12F
BROWNSVILLE    SUNNY     75  56  51 SE15      30.17F
CORPUS CHRISTI MOSUNNY   73  54  51 SE13G21   30.15F
DALLAS FTW     MOSUNNY   69  50  50 S16       30.02F
DEL RIO        SUNNY     71  46  40 SE14      30.10F
EL PASO        MOSUNNY   68  19  15 S6        30.10F
HOUSTON INT    PTSUNNY   69  55  60 S13       30.18F
LUBBOCK        PTSUNNY   77  26  15 SW15G24   29.96F
SAN ANGELO     SUNNY     72  37  28 S15       30.05F
SAN ANTONIO    MOSUNNY   72  48  42 SW14      30.13F
WACO           SUNNY     71  47  42 S22G29    30.08F
WICHITA FALLS  NOT AVBL
$$
...OTHER LOCATIONS IN NEW MEXICO...

CITY           SKY/WX    TMP DP  RH WIND       PRES   REMARKS
ALAMAGORDO     SUNNY     68  19  15 S6        30.11F
ALBUQUERQUE    MOSUNNY   60  19  20 S10       30.12F
CANNON AFB     SUNNY     77  14   9 SW17      30.00S
CLOVIS         SUNNY     77  18  10 SW20      29.99S
HOLLOMAN AFB   SUNNY     67  21  17 VRB5      30.09F
ROSWELL        SUNNY     69  30  23 S7        30.01F
RUIDOSO        SUNNY     63  18  17 NW12      30.19S
SANTA FE       SUNNY     58  15  18 CALM      30.12F
TRUTH OR CONSE SUNNY     66  19  16 S12       30.10F
TUCUMCARI      SUNNY     80  11   7 W21       29.92F
$$

USA.gov is the U.S. government's official web portal to all federal, state and local government web resources and services.